Weather History for KBKV - February, 2013

Change the Weather History Date:

Saturday, February 16, 2013

  Actual Average Record
Temperature  
Mean Temperature 54 °F -  
Max Temperature 64 °F 71 °F 84 °F (2001)
Min Temperature 43 °F 46 °F 30 °F (2007)
Degree Days  
Heating Degree Days 12    
Growing Degree Days 4 (Base 50)    
Moisture  
Dew Point 40 °F    
Average Humidity 63    
Maximum Humidity 97    
Minimum Humidity 35    
Precipitation  
Precipitation 0.00 in - - ()
Sea Level Pressure  
Sea Level Pressure 30.02 in    
Wind  
Wind Speed 9 mph (NW)    
Max Wind Speed 25 mph    
Max Gust Speed 32 mph    
Visibility 10 miles    
Events      
Averages and records for this station are not official NWS values.
T = Trace of Precipitation, MM = Missing Value Source: NWS Daily Summary

Daily Weather History Graph

Daily Weather History Graph

Search for Another Location

Airport or City:

Trip Planner

Search our weather history database for the weather conditions in past years. The results will help you decide how hot, cold, wet, or windy it might be!

Date:

Astronomy

Feb. 16, 2013 Rise Set
Actual Time 7:06 AM EST 6:21 PM EST
Civil Twilight 6:42 AM EST 6:45 PM EST
Nautical Twilight 6:15 AM EST 7:12 PM EST
Astronomical Twilight 5:47 AM EST 7:40 PM EST
Moon 10:54 AM EST (2/16) No Moon Set
Length of Visible Light 12h 02m
Length of Day
11h 14m
Waxing Crescent, 39% of the Moon is Illuminated
Feb 16
Waxing Crescent
Feb 17
First Quarter
Feb 25
Full
Mar 4
Last Quarter
Mar 11
New

Hourly Weather History & Observations

Time (EST) Temp. Dew Point Humidity Pressure Visibility Wind Dir Wind Speed Gust Speed Precip Events Conditions
12:53 AM 52.0 °F 46.0 °F 80% 30.02 in 10.0 mi North 6.9 mph - N/A   Clear
1:53 AM 51.1 °F 45.0 °F 80% 29.99 in 10.0 mi North 4.6 mph - N/A   Clear
2:53 AM 50.0 °F 46.0 °F 86% 29.99 in 10.0 mi WNW 3.5 mph - N/A   Clear
3:53 AM 48.9 °F 45.0 °F 86% 29.98 in 10.0 mi Calm Calm - N/A   Clear
4:53 AM 46.0 °F 44.1 °F 93% 29.98 in 10.0 mi Calm Calm - N/A   Clear
5:53 AM 44.1 °F 42.1 °F 93% 29.98 in 10.0 mi Calm Calm - N/A   Clear
6:53 AM 43.0 °F 41.0 °F 93% 29.98 in 10.0 mi Calm Calm - N/A   Clear
7:53 AM 45.0 °F 44.1 °F 97% 29.98 in 10.0 mi Calm Calm - N/A   Clear
8:53 AM 52.0 °F 48.9 °F 89% 29.99 in 10.0 mi Calm Calm - N/A   Clear
9:53 AM 60.1 °F 43.0 °F 53% 30.01 in 10.0 mi West 6.9 mph - N/A   Clear
10:53 AM 64.0 °F 46.9 °F 54% 30.01 in 10.0 mi WNW 18.4 mph 26.5 mph N/A   Scattered Clouds
11:53 AM 64.9 °F 46.0 °F 50% 30.01 in 10.0 mi WNW 17.3 mph 23.0 mph N/A   Scattered Clouds
12:53 PM 63.0 °F 43.0 °F 48% 29.99 in 10.0 mi WNW 16.1 mph - N/A   Overcast
1:53 PM 60.1 °F 46.0 °F 60% 29.99 in 10.0 mi WNW 21.9 mph 28.8 mph N/A   Scattered Clouds
2:53 PM 59.0 °F 44.1 °F 58% 30.00 in 10.0 mi NW 21.9 mph 27.6 mph N/A   Mostly Cloudy
3:53 PM 57.0 °F 43.0 °F 59% 30.02 in 10.0 mi NW 16.1 mph 28.8 mph N/A   Overcast
4:53 PM 55.9 °F 39.0 °F 53% 30.01 in 10.0 mi WNW 23.0 mph 32.2 mph N/A   Clear
5:53 PM 55.0 °F 37.0 °F 51% 30.03 in 10.0 mi WNW 16.1 mph 24.2 mph N/A   Partly Cloudy
6:53 PM 55.0 °F 33.1 °F 43% 30.04 in 10.0 mi WNW 19.6 mph 27.6 mph N/A   Mostly Cloudy
7:53 PM 55.0 °F 30.9 °F 40% 30.06 in 10.0 mi WNW 23.0 mph 32.2 mph N/A   Overcast
8:53 PM 54.0 °F 27.0 °F 35% 30.08 in 10.0 mi West 23.0 mph 32.2 mph N/A   Partly Cloudy
9:53 PM 53.1 °F 28.0 °F 38% 30.11 in 10.0 mi NNW 25.3 mph 29.9 mph N/A   Overcast
10:53 PM 50.0 °F 24.1 °F 36% 30.16 in 10.0 mi North 16.1 mph 21.9 mph N/A   Mostly Cloudy
11:53 PM 46.9 °F 21.9 °F 37% 30.18 in 10.0 mi North 15.0 mph - N/A   Clear